FW6725 Weather Reports


Display with metric or nautical units.
time (UTC)temp
F
wind
direction
speed
MPH
gust
MPH
rain 1hr
in
rain 24hr
in
rain mn
in
humidity
%
barometer
mb
20260905164526 59 285 3.0 6.0 0.00 0.00 0.00 68 997.5
20260905163525 59 292 3.0 8.0 0.00 0.00 0.00 66 997.4
20260905162526 59 313 4.0 8.0 0.00 0.00 0.00 64 997.3
20260905161524 59 320 4.0 9.0 0.00 0.00 0.00 64 997.3
20260905160524 60 319 5.0 12.0 0.00 0.00 0.00 62 997.2
20260905155523 60 315 5.0 12.0 0.00 0.00 0.00 60 997.0
20260905154522 61 300 4.0 7.0 0.00 0.00 0.00 62 996.9
20260905153522 62 294 3.0 7.0 0.00 0.00 0.00 60 996.9
20260905152539 61 298 3.0 6.0 0.00 0.00 0.00 61 996.8
20260905151520 60 300 3.0 6.0 0.00 0.00 0.00 63 996.8
20260905150518 60 311 4.0 7.0 0.00 0.00 0.00 63 996.7
20260905145546 60 322 4.0 7.0 0.00 0.00 0.00 62 996.6
20260905144545 61 329 5.0 8.0 0.00 0.00 0.00 61 996.6
20260905143604 61 323 4.0 8.0 0.00 0.00 0.00 62 996.5
20260905142603 61 308 3.0 6.0 0.00 0.00 0.00 63 996.4
20260905141542 61 314 4.0 9.0 0.00 0.00 0.00 61 996.3
20260905140541 60 310 4.0 8.0 0.00 0.00 0.00 60 996.3
20260905135540 60 314 5.0 10.0 0.00 0.00 0.00 59 996.2
20260905134600 61 306 5.0 11.0 0.00 0.00 0.00 58 996.1
20260905133558 62 304 7.0 11.0 0.00 0.00 0.00 55 996.0
20260905132539 63 312 5.0 11.0 0.00 0.00 0.00 54 995.9
20260905131556 62 291 6.0 11.0 0.00 0.00 0.00 55 995.9
20260905130535 62 283 7.0 13.0 0.00 0.00 0.00 55 995.8
20260905125535 64 273 7.0 13.0 0.00 0.00 0.00 51 995.7
20260905124535 63 272 6.0 10.0 0.00 0.00 0.00 50 995.7
20260905123532 64 275 5.0 10.0 0.00 0.00 0.00 51 995.7
20260905122553 63 290 6.0 12.0 0.00 0.00 0.00 51 995.7
20260905121551 61 300 6.0 12.0 0.00 0.00 0.00 54 995.7
20260905120531 62 303 6.0 11.0 0.00 0.00 0.00 55 995.5
20260905115530 64 287 6.0 11.0 0.00 0.00 0.00 51 995.5
20260905114527 64 275 6.0 12.0 0.00 0.00 0.00 49 995.4
20260905113546 62 282 7.0 12.0 0.00 0.00 0.00 54 995.4
20260905112525 62 289 6.0 11.0 0.00 0.00 0.00 60 995.4
20260905111524 63 237 6.0 11.0 0.00 0.00 0.00 57 995.3
20260905110523 61 241 6.0 10.0 0.00 0.00 0.00 63 995.2
20260905105522 62 241 6.0 9.0 0.00 0.00 0.00 60 995.1
20260905104521 63 258 5.0 8.0 0.00 0.00 0.00 60 995.0
20260905103522 61 296 4.0 8.0 0.00 0.00 0.00 65 995.0
20260905102521 61 318 5.0 9.0 0.00 0.00 0.00 65 994.9
20260905101520 63 314 3.0 8.0 0.00 0.00 0.00 64 994.8
20260905100520 61 293 4.0 8.0 0.00 0.00 0.00 66 994.8
20260905095517 61 262 4.0 8.0 0.00 0.00 0.00 67 994.7
20260905094547 60 293 4.0 8.0 0.00 0.00 0.00 72 994.7
20260905093545 59 291 4.0 7.0 0.00 0.00 0.00 76 994.7
20260905092546 58 285 4.0 7.0 0.00 0.00 0.00 80 994.7
20260905091544 58 277 4.0 7.0 0.00 0.00 0.00 82 994.6
20260905090543 57 301 4.0 7.0 0.00 0.00 0.00 85 994.6
20260905085601 56 296 4.0 6.0 0.00 0.00 0.00 86 994.5
20260905084541 56 304 4.0 6.0 0.00 0.00 0.00 89 994.5
20260905083600 54 303 4.0 6.0 0.00 0.01 0.00 91 994.4
20260905082539 53 315 4.0 5.0 0.00 0.01 0.00 94 994.4
20260905081538 52 293 4.0 5.0 0.00 0.01 0.00 97 994.4
20260905080557 52 314 3.0 5.0 0.00 0.01 0.00 98 994.4
20260905075536 51 291 3.0 4.0 0.00 0.00 0.00 98 994.3
20260905074615 51 297 3.0 5.0 0.00 0.00 0.00 99 994.3
20260905073534 50 292 2.0 5.0 0.00 0.00 0.00 99 994.3
20260905072553 50 306 2.0 4.0 0.00 0.00 0.00 99 994.2
20260905071612 49 289 3.0 6.0 0.00 0.00 0.00 99 994.1
20260905070531 49 308 4.0 6.0 0.00 0.00 0.00 99 994.0
20260905065530 49 323 3.0 6.0 0.00 0.00 0.00 98 994.0
20260905064530 49 315 3.0 5.0 0.00 0.00 0.00 98 993.9
20260905063528 48 310 5.0 7.0 0.00 0.00 0.00 98 993.9
20260905062546 48 314 4.0 7.0 0.00 0.00 0.00 98 993.7
20260905061525 48 304 3.0 5.0 0.00 0.00 0.00 98 993.7
20260905060525 47 307 3.0 5.0 0.00 0.00 0.00 98 993.7
20260905055523 47 308 3.0 6.0 0.00 0.00 0.00 98 993.7
20260905054522 47 313 4.0 6.0 0.00 0.00 0.00 98 993.6
20260905053521 47 301 3.0 6.0 0.00 0.00 0.00 98 993.6
20260905052522 47 314 4.0 6.0 0.00 0.00 0.00 98 993.6
20260905051521 47 309 4.0 5.0 0.00 0.00 0.00 98 993.6
20260905050520 47 321 4.0 6.0 0.00 0.00 0.00 98 993.6
20260905045519 47 324 3.0 5.0 0.00 0.00 0.00 98 993.6
20260905044518 46 318 3.0 5.0 0.00 0.00 0.00 98 993.6
20260905043517 46 314 3.0 4.0 0.00 0.00 0.00 98 993.7
20260905042546 45 307 2.0 4.0 0.00 0.00 0.00 98 993.7
20260905041545 45 291 2.0 4.0 0.00 0.00 0.00 98 993.7
20260905040543 45 305 2.0 3.0 0.00 0.00 0.00 98 993.7
20260905035543 44 314 3.0 4.0 0.00 0.00 0.00 98 993.7
20260905034602 44 304 1.0 3.0 0.00 0.00 0.00 98 993.7
20260905033541 45 300 1.0 2.0 0.00 0.00 0.00 98 993.7
20260905032540 45 313 2.0 3.0 0.00 0.00 0.00 98 993.7
20260905031539 45 293 1.0 2.0 0.00 0.00 0.00 98 993.7
20260905030538 45 306 2.0 2.0 0.00 0.00 0.00 98 993.7
20260905025537 45 288 2.0 2.0 0.00 0.00 0.00 98 993.7
20260905024536 45 323 2.0 3.0 0.00 0.00 0.00 98 993.7
20260905023535 45 336 1.0 2.0 0.00 0.00 0.00 98 993.7
20260905022534 45 343 2.0 2.0 0.00 0.00 0.00 98 993.7
20260905021553 45 354 1.0 2.0 0.00 0.00 0.00 98 993.7
20260905020532 45 327 2.0 2.0 0.00 0.00 0.00 98 993.6
20260905015531 46 331 2.0 3.0 0.00 0.00 0.00 98 993.6
20260905014530 46 320 2.0 4.0 0.00 0.00 0.00 98 993.7
20260905013529 45 325 3.0 4.0 0.00 0.00 0.00 98 993.7
20260905012548 46 292 3.0 4.0 0.00 0.00 0.00 98 993.7
20260905011527 45 313 2.0 3.0 0.00 0.00 0.00 98 993.7
20260905010525 46 327 3.0 3.0 0.00 0.00 0.00 98 993.7
20260905005545 46 303 2.0 3.0 0.00 0.00 0.00 98 993.6
20260905004524 47 296 2.0 2.0 0.00 0.00 0.00 98 993.6
20260905003522 48 310 1.0 2.0 0.00 0.00 0.00 98 993.6
20260905002602 49 277 1.0 1.0 0.00 0.00 0.00 98 993.7
20260905001520 49 33 0.0 2.0 0.00 0.00 0.00 98 993.7
20260905000540 49 58 1.0 2.0 0.00 0.00 0.00 98 993.8
20260904235539 48 88 2.0 3.0 0.00 0.00 0.00 98 993.8
20260904234538 48 92 3.0 3.0 0.00 0.00 0.00 98 993.9
20260904233517 49 92 3.0 4.0 0.00 0.00 0.00 97 994.0
20260904232516 49 87 2.0 4.0 0.00 0.00 0.00 97 994.1
20260904231545 49 317 0.0 1.0 0.00 0.00 0.00 97 994.2
20260904230544 50 281 0.0 1.0 0.00 0.00 0.00 96 994.2
20260904225543 50 231 1.0 2.0 0.00 0.00 0.00 95 994.3
20260904224542 51 246 2.0 3.0 0.00 0.00 0.00 93 994.3
20260904223541 52 268 3.0 4.0 0.00 0.00 0.00 94 994.4
20260904222600 52 274 3.0 5.0 0.00 0.00 0.00 93 994.5
20260904221539 53 260 4.0 5.0 0.00 0.00 0.00 92 994.5
20260904220539 53 249 5.0 5.0 0.00 0.00 0.00 92 994.6
20260904215538 53 247 4.0 5.0 0.00 0.00 0.00 91 994.7
20260904214538 53 244 4.0 5.0 0.00 0.00 0.00 91 994.7
20260904213537 53 242 4.0 5.0 0.00 0.00 0.00 91 994.8
20260904212536 52 246 4.0 6.0 0.00 0.00 0.00 92 994.9
20260904211534 53 256 4.0 5.0 0.00 0.00 0.00 91 995.0
20260904210533 53 240 4.0 6.0 0.00 0.00 0.00 90 995.0
20260904205532 53 224 5.0 7.0 0.00 0.00 0.00 89 995.1
20260904204552 53 212 5.0 7.0 0.00 0.00 0.00 88 995.2
20260904203531 54 206 5.0 7.0 0.00 0.00 0.00 87 995.2
20260904202530 54 205 4.0 7.0 0.00 0.00 0.00 87 995.3
20260904201529 54 210 5.0 8.0 0.00 0.00 0.00 88 995.4
20260904200548 54 205 3.0 7.0 0.00 0.00 0.00 87 995.4
20260904195527 53 184 2.0 5.0 0.00 0.00 0.00 90 995.5
20260904194526 53 168 3.0 5.0 0.00 0.00 0.00 90 995.6
20260904193525 54 204 4.0 6.0 0.00 0.00 0.00 86 995.7
20260904192524 54 193 4.0 6.0 0.00 0.00 0.00 87 995.7
20260904191522 53 150 3.0 6.0 0.00 0.00 0.00 89 995.9
20260904190607 53 141 3.0 4.0 0.00 0.00 0.00 89 995.9
20260904185520 54 154 3.0 4.0 0.00 0.00 0.00 87 996.1
20260904184519 54 155 3.0 5.0 0.00 0.00 0.00 86 996.2
20260904183518 54 168 4.0 7.0 0.00 0.00 0.00 84 996.2
20260904182518 55 181 5.0 8.0 0.00 0.00 0.00 82 996.3
20260904181518 55 192 5.0 9.0 0.00 0.00 0.00 80 996.4
20260904180515 56 200 6.0 10.0 0.00 0.00 0.00 79 996.4
20260904175546 55 202 6.0 10.0 0.00 0.00 0.00 79 996.4
20260904174546 55 204 5.0 8.0 0.00 0.00 0.00 80 996.5
20260904173544 55 194 5.0 9.0 0.00 0.00 0.00 80 996.5
20260904172545 55 187 4.0 7.0 0.00 0.00 0.00 82 996.5
20260904171602 55 185 4.0 6.0 0.00 0.00 0.00 82 996.5
20260904170541 56 177 4.0 6.0 0.00 0.00 0.00 80 996.5
20260904165540 56 177 3.0 7.0 0.00 0.00 0.00 79 996.5